Temperature
21 20 20 19 18 18 20 22 22 22 22 22 23 23 22 21 21 21 21 21 21 20 20 19 19 20 20 20 20 20 20 20 20 19 19 19 19 19 19 18 18 18 18 18 18 18 18 18 18
21 20 19 19 19 20 21 22 22 23 23 23 23 22 22 21 21 21 20 20 21 20 20 20 20 20 20 20 20 20 20 20 19 19 19 19 19 19 19 18 18 18 18 18 18 18 18 18 18
20 20 19 18 19 20 22 23 23 23 23 23 22 22 22 21 21 21 21 21 20 20 20 20 20 20 20 20 20 20 20 19 19 19 19 19 19 19 18 18 18 18 18 18 18 18 18 18 18
20 20 19 18 20 21 22 23 23 23 23 23 22 21 21 21 21 21 21 21 20 20 20 20 20 20 20 20 20 20 19 19 19 19 19 19 19 18 18 18 18 18 18 18 18 18 18 18 18
21 20 19 19 20 22 23 24 24 23 23 23 22 21 21 21 21 21 21 21 20 20 20 20 20 20 20 20 20 19 19 19 19 19 19 18 18 18 18 18 18 18 18 18 18 18 18 18 17
21 19 19 19 21 23 24 25 24 23 23 22 22 21 20 21 21 21 21 21 21 20 20 20 20 20 20 19 19 19 19 19 19 19 18 18 18 18 18 18 18 18 18 18 18 18 17 17 17
20 18 19 21 21 23 25 25 24 23 22 22 22 20 19 20 21 21 21 21 20 20 20 20 19 19 19 19 19 19 19 19 18 18 18 18 18 18 18 18 18 18 18 18 18 17 17 17 17
21 18 20 20 22 24 25 25 24 24 23 23 23 20 20 20 20 20 20 20 20 20 20 19 19 19 19 19 19 19 19 18 18 18 18 18 18 18 18 18 18 18 17 17 17 17 17 17 17
22 18 19 21 23 24 25 24 24 24 23 22 22 22 22 21 20 20 20 19 19 19 19 19 19 19 19 19 19 19 18 18 18 18 18 18 18 18 17 17 17 17 17 17 17 17 17 17 17
21 19 21 22 24 24 25 24 24 23 22 21 21 22 22 21 20 20 19 19 19 19 19 19 19 19 19 19 19 18 18 18 18 18 17 17 17 17 17 17 17 17 17 17 17 17 17 17 17
21 20 22 23 25 25 24 24 24 23 21 22 22 22 21 20 19 19 19 20 19 19 19 19 19 19 19 19 19 18 18 18 18 17 17 17 17 17 17 17 17 17 17 17 17 17 17 17 17
21 22 23 25 26 25 25 24 23 23 24 25 24 23 21 20 19 19 19 19 19 19 19 19 19 19 19 19 19 18 18 18 18 17 17 17 17 17 17 17 17 17 17 17 17 17 17 17 17
23 24 25 26 26 25 25 24 23 23 24 24 23 22 21 20 19 19 19 19 19 19 19 19 18 18 18 18 18 18 18 18 18 17 17 17 17 17 17 17 17 17 17 17 17 17 17 17 17
24 24 24 25 25 25 23 23 23 23 23 23 22 21 20 20 19 19 19 19 19 19 19 19 18 18 18 18 18 18 18 18 17 17 17 17 17 17 17 17 17 17 17 17 17 17 17 17 17
24 23 23 24 24 24 24 23 22 23 22 21 20 20 20 20 19 19 19 19 19 19 19 18 18 18 18 18 18 18 18 18 17 17 17 17 17 17 17 17 17 16 16 16 16 16 16 16 17
23 22 23 23 24 24 24 23 22 22 21 19 19 19 19 19 19 19 19 19 18 18 18 18 18 18 18 18 18 18 18 17 17 17 17 17 17 17 16 16 16 16 16 16 16 16 16 16 16
21 21 22 23 23 23 23 22 21 21 20 19 19 19 19 19 19 19 19 18 18 18 18 18 18 18 18 18 17 17 17 17 17 17 17 17 16 16 16 16 16 16 16 16 16 16 16 16 16
22 22 22 22 23 23 22 21 20 20 20 19 19 19 19 19 19 19 18 18 17 17 17 17 18 17 17 17 17 17 17 17 17 17 17 16 16 16 16 16 16 16 15 15 15 16 16 16 16
22 22 21 22 23 22 21 21 20 19 19 18 18 18 18 19 19 18 18 17 17 17 17 17 17 17 17 17 17 17 17 17 17 16 16 16 16 16 16 16 16 15 15 15 15 15 15 15 15
22 21 21 22 23 22 21 20 20 19 19 19 18 18 18 18 18 18 18 17 17 17 17 17 17 17 17 17 17 17 17 17 17 16 16 16 16 16 16 15 15 15 15 15 15 15 15 15 15
23 22 22 22 22 21 21 20 20 19 19 19 18 18 18 18 18 18 17 17 17 17 17 17 17 17 17 17 17 17 17 17 16 16 16 16 16 15 15 15 15 15 15 15 15 15 15 15 15
22 23 23 22 21 19 20 19 20 19 18 18 18 18 18 18 18 18 17 17 17 17 17 17 17 17 17 17 17 17 17 17 17 16 16 16 16 15 15 15 15 15 15 15 15 15 15 15 15
23 22 21 21 20 19 18 19 18 18 19 18 17 18 18 18 18 18 18 17 17 17 17 17 17 16 17 17 17 17 17 17 17 16 16 16 15 15 15 15 15 15 15 15 15 15 15 15 15
23 22 20 17 17 19 19 19 19 18 19 19 18 18 18 18 18 18 17 17 17 17 17 17 17 16 16 16 16 17 17 17 16 16 16 16 16 15 15 15 15 15 15 15 15 15 15 15 15
22 20 19 20 18 19 18 18 18 19 19 19 18 18 18 18 18 18 17 17 17 17 17 16 16 16 16 16 16 16 17 17 16 16 16 16 16 16 15 15 15 15 15 14 14 14 15 15 15
21 20 20 20 19 18 18 18 18 19 19 19 19 18 18 18 18 18 17 17 17 17 17 17 17 16 17 17 16 16 17 16 16 16 16 16 16 16 15 15 15 15 14 14 14 14 14 14 14
21 20 19 18 18 18 18 18 18 19 18 18 18 17 18 18 18 18 18 18 17 17 17 17 17 17 17 17 16 16 16 16 16 16 16 16 16 16 15 15 15 15 14 14 14 14 14 14 14
22 19 17 17 19 19 20 19 19 20 19 18 17 17 17 18 18 18 18 18 18 17 17 17 17 17 17 17 17 16 16 16 16 16 16 16 16 16 15 15 15 15 15 14 14 14 14 14 14
21 20 18 16 17 18 19 19 19 19 19 18 17 18 18 18 19 19 18 18 18 17 17 17 17 17 17 17 17 16 16 16 16 16 16 16 16 16 16 16 15 15 15 15 14 14 14 14 14
21 20 17 19 18 17 18 19 20 18 18 18 18 18 19 19 19 19 19 18 18 18 17 17 17 17 17 17 17 17 16 16 16 16 16 16 16 16 16 16 16 15 15 15 15 15 14 14 14
Wind_Speed
7 5 2 2 3 3 2 3 2 2 1 1 3 3 5 5 4 3 2 13 18 17 17 20 20 19 19 19 18 18 18 17 17 17 16 16 15 14 14 13 13 12 12 11 11 11 12 12 12
5 4 1 2 4 2 4 3 4 4 4 4 3 2 2 1 2 6 7 11 18 17 17 19 21 20 19 19 18 18 17 17 16 16 15 15 14 13 13 13 12 12 12 12 11 11 12 12 12
4 2 3 3 2 3 4 4 4 3 5 4 3 2 2 3 5 7 7 15 16 14 17 20 22 21 19 19 18 17 17 16 16 15 14 14 13 12 12 12 12 11 11 11 11 11 11 11 11
2 3 4 3 3 5 5 5 5 6 4 2 4 2 1 1 6 7 14 17 16 13 16 20 23 21 20 19 18 17 16 15 15 14 13 13 12 12 11 11 11 11 11 10 10 10 11 11 11
3 4 4 3 5 5 5 5 7 7 5 4 4 3 1 3 8 15 17 18 17 13 13 19 22 21 20 19 18 17 16 15 14 14 13 12 12 11 10 10 10 10 9 9 9 9 9 10 10
4 4 3 3 6 5 3 4 6 5 3 4 5 4 1 3 11 16 16 15 15 15 13 18 21 21 20 19 18 17 16 15 14 13 12 12 11 10 10 9 9 8 8 8 8 8 8 8 8
4 4 1 4 5 5 1 3 6 6 5 5 6 5 1 4 9 14 13 12 12 12 11 13 17 19 19 19 18 17 15 14 13 13 12 11 10 10 9 8 8 7 7 6 6 6 6 6 6
5 4 1 3 4 4 1 2 3 6 5 4 6 7 5 7 11 12 12 10 11 11 10 9 13 14 15 16 17 16 15 14 13 12 11 10 10 9 8 7 6 6 6 5 5 5 5 5 5
4 3 3 5 4 4 1 2 2 3 5 3 3 4 6 16 16 14 12 9 11 12 9 8 9 11 12 13 15 16 15 14 13 11 11 9 7 6 6 6 6 5 5 4 3 3 3 4 4
4 3 7 6 5 4 3 4 5 4 4 3 2 5 13 18 17 17 17 16 15 14 12 9 9 9 11 12 12 11 11 11 9 8 7 7 6 5 5 5 5 5 5 4 3 2 2 4 4
6 7 6 6 7 5 3 3 5 7 6 8 9 13 18 18 16 15 15 15 14 13 13 10 9 9 9 7 9 7 8 8 8 7 7 6 5 4 3 2 2 1 2 1 1 2 2 3 3
5 8 7 7 4 3 5 5 5 8 8 7 12 19 20 19 17 16 15 13 10 11 11 10 9 8 7 7 7 7 6 6 6 6 7 6 4 3 2 2 1 1 1 1 1 2 2 2 2
5 6 5 7 6 5 4 5 5 5 2 6 13 17 19 17 14 11 10 10 10 11 10 9 8 9 7 6 6 7 6 6 6 6 7 7 5 3 2 2 2 2 2 2 1 1 2 2 2
5 7 8 7 4 2 4 2 2 4 5 11 14 15 15 16 14 11 11 11 11 11 10 9 8 8 7 6 5 5 6 7 7 6 7 7 6 5 3 2 2 1 2 2 2 2 2 2 2
4 6 8 3 1 1 2 2 4 4 9 11 12 12 13 12 12 13 13 12 12 12 11 10 10 8 8 7 6 6 7 8 6 6 7 7 7 7 5 3 2 1 2 3 3 3 3 2 2
4 5 6 7 2 1 3 7 5 4 10 10 10 10 10 9 10 10 11 10 9 9 10 10 10 9 8 7 6 6 8 7 6 7 7 7 7 8 6 3 2 2 4 4 3 3 2 2 2
6 5 6 8 3 0 3 7 3 3 8 8 8 8 8 8 7 7 9 9 9 9 9 9 8 9 8 7 5 6 6 6 6 7 6 7 7 8 7 4 3 4 4 3 2 2 2 2 2
5 6 7 8 5 2 3 6 2 2 6 7 7 7 7 8 8 8 7 8 8 8 8 9 9 8 7 6 6 5 5 4 5 5 6 7 8 8 7 5 4 5 4 3 3 3 3 2 2
5 6 10 11 6 2 5 5 2 3 4 5 4 5 7 7 5 6 7 8 8 9 9 9 9 9 8 6 6 5 4 3 3 3 6 7 8 8 7 5 4 4 3 3 3 3 3 3 1
5 7 8 9 4 1 4 5 1 2 4 4 5 6 7 5 5 7 8 8 10 10 10 10 10 10 9 7 5 4 5 4 3 3 4 6 8 8 7 6 4 4 4 4 3 3 3 2 2
6 6 7 7 4 4 4 6 2 1 1 2 2 4 5 7 8 8 9 9 10 10 10 10 10 9 9 8 7 6 5 4 3 3 2 3 6 7 7 7 6 4 4 4 3 3 4 3 2
7 6 6 3 2 4 3 4 5 2 3 3 3 3 4 5 6 7 8 9 10 9 8 9 9 9 9 10 10 11 7 5 5 4 3 3 4 6 7 8 7 5 4 4 3 2 3 4 2
6 1 2 2 2 2 3 1 7 2 3 5 5 5 5 5 6 8 8 9 9 8 8 9 9 9 8 9 10 10 7 4 4 4 5 3 2 3 5 7 6 5 4 4 3 3 3 2 3
3 5 5 5 5 3 2 0 7 4 5 4 4 4 5 5 5 6 6 7 7 8 8 9 10 9 9 9 9 9 10 8 7 6 5 4 2 2 3 5 5 5 4 4 4 3 3 3 3
4 5 5 6 5 5 2 3 9 7 5 5 5 5 5 6 7 7 7 8 8 9 9 9 10 9 9 10 9 9 9 9 9 7 7 6 4 3 4 4 4 4 4 5 4 4 3 3 3
6 9 7 5 5 6 3 5 8 5 3 3 4 4 4 6 6 8 8 9 9 10 10 10 10 9 9 10 8 8 8 7 6 6 6 7 5 5 5 5 5 5 6 5 4 3 3 3 3
7 5 6 7 2 2 6 7 9 2 2 3 3 4 5 6 7 7 8 9 9 9 9 10 10 9 9 9 8 8 7 7 7 6 6 5 5 4 6 6 6 6 6 6 5 3 3 4 3
5 9 6 6 4 4 6 6 5 6 6 5 5 5 5 5 6 7 7 8 8 8 8 8 9 9 8 8 8 7 7 7 7 6 7 6 6 5 6 6 7 6 6 6 5 4 4 4 3
4 5 5 5 5 6 4 8 7 8 7 7 7 6 6 7 6 7 7 7 7 7 8 8 8 7 7 8 7 7 7 6 6 6 7 7 6 6 7 7 7 7 7 7 6 6 5 5 4
6 8 8 6 5 5 4 8 5 5 6 6 6 5 5 6 6 7 8 8 7 8 8 8 8 7 7 7 7 7 6 6 6 6 6 6 6 6 7 7 7 8 8 8 8 8 7 7 7
Wind_Direction
175 154 145 127 66 50 273 253 224 209 213 203 150 162 167 171 179 207 128 145 141 147 155 155 152 147 143 138 135 133 131 130 129 128 128 128 128 128 128 125 121 119 114 111 109 109 110 111 111
143 156 142 71 81 23 284 239 215 209 180 134 126 121 138 188 107 120 133 145 143 146 151 154 154 150 146 142 139 137 136 134 133 131 131 131 130 129 129 126 123 120 116 112 110 109 110 111 113
158 175 91 73 116 199 250 232 202 168 163 162 144 118 173 183 145 150 153 145 141 145 150 156 155 153 150 146 144 142 141 139 138 136 135 134 134 133 130 127 125 120 115 111 110 110 110 111 115
134 62 60 66 253 234 227 224 178 155 174 176 149 144 126 97 152 149 142 143 142 145 150 158 156 155 153 150 148 146 146 145 143 141 141 139 136 134 132 130 126 121 116 111 109 109 109 112 117
72 79 51 346 272 257 236 209 173 164 181 176 158 156 112 9 125 136 144 148 147 146 151 159 157 157 156 154 152 151 151 150 148 145 143 141 139 137 135 132 129 125 120 115 111 108 107 111 116
64 68 65 298 284 280 258 177 156 166 175 154 153 148 61 104 135 144 147 149 150 150 151 158 159 159 158 157 155 155 155 154 152 150 148 146 146 144 141 138 134 131 126 120 114 110 106 105 110
117 105 194 258 283 291 252 144 157 166 176 181 158 139 123 141 146 142 141 142 145 149 149 153 158 161 161 160 159 159 159 157 155 154 154 154 153 153 151 148 144 140 133 127 120 112 105 100 107
141 109 270 263 257 273 239 135 162 162 182 149 141 156 186 170 143 133 131 139 146 149 151 149 153 157 159 161 163 163 162 161 160 160 160 161 160 161 160 156 158 153 147 140 130 116 100 93 103
113 79 252 238 232 258 222 160 163 147 132 143 166 174 165 145 143 140 142 150 156 157 151 148 149 150 152 158 166 166 166 166 164 165 168 164 158 161 162 165 173 169 164 158 149 126 100 88 87
120 177 237 227 223 239 249 206 171 150 155 170 123 110 134 145 153 159 164 167 168 166 161 157 158 152 152 162 162 159 158 160 158 160 156 147 148 159 169 179 183 183 180 175 170 146 102 92 83
177 211 247 255 239 227 216 206 169 157 199 206 184 158 153 156 162 170 174 172 172 167 165 165 164 156 155 151 147 143 141 144 146 149 145 145 144 151 156 163 175 172 170 140 110 94 91 105 108
207 245 243 266 252 205 194 181 182 191 217 201 171 158 158 164 171 178 175 171 164 164 168 163 162 158 155 148 146 142 141 144 144 149 153 151 145 147 153 162 162 130 120 123 119 103 100 106 127
231 265 262 258 270 232 190 192 196 225 229 135 142 153 163 168 175 178 173 165 163 171 169 163 161 161 153 147 150 151 150 154 153 153 160 162 155 152 147 142 142 145 141 142 149 137 120 107 101
262 275 285 280 267 211 177 216 176 232 135 135 147 160 167 171 172 169 167 169 174 178 171 164 166 164 153 152 150 149 152 151 149 153 162 163 157 149 141 134 134 140 147 151 149 136 119 106 112
304 313 321 313 303 240 119 296 231 198 140 144 156 163 167 172 174 179 180 180 181 180 173 171 172 165 159 158 158 151 149 147 146 148 155 157 154 150 145 136 136 149 136 128 115 96 92 98 97
2 14 334 306 317 287 149 261 265 159 150 154 162 169 170 174 187 186 178 176 179 177 174 178 181 171 168 161 151 144 145 144 145 145 148 152 153 150 142 136 140 139 128 122 109 96 90 82 87
25 352 302 303 305 315 201 256 295 151 154 162 170 176 178 178 187 192 184 173 174 174 173 175 175 172 167 155 141 132 134 136 140 141 141 142 145 147 139 130 129 126 112 105 117 87 100 99 88
306 309 295 294 295 317 261 257 275 147 157 173 178 182 189 195 197 186 180 172 172 170 175 177 169 163 150 135 120 109 108 115 126 132 136 136 138 140 130 120 117 119 107 97 96 97 79 85 91
258 269 282 283 296 291 262 265 266 164 167 182 185 191 205 209 186 170 171 175 174 169 170 175 170 160 154 147 147 142 145 141 125 129 133 137 139 138 129 122 113 113 114 121 119 103 88 65 61
250 281 285 296 339 336 298 296 276 176 200 200 200 201 200 187 162 164 167 172 180 177 174 174 173 168 167 166 156 141 134 127 117 111 122 138 140 141 137 132 127 122 115 109 110 117 108 69 49
275 238 260 275 320 17 1 322 302 313 252 210 208 201 191 189 178 173 177 177 175 177 177 178 174 167 162 153 131 116 97 89 99 117 123 131 140 141 138 138 133 131 127 128 124 132 133 130 64
277 254 243 269 327 312 28 297 296 298 305 256 231 211 201 184 175 172 173 174 178 177 172 165 162 157 158 153 151 149 151 156 171 161 149 125 131 138 142 140 137 132 128 131 136 132 134 137 134
230 343 53 56 112 351 6 275 292 320 279 257 239 220 207 189 177 176 178 177 172 165 163 158 153 152 157 159 159 154 147 146 134 131 134 128 116 133 144 143 138 136 135 137 128 121 124 129 141
174 64 49 53 63 330 302 283 284 251 235 247 232 218 197 185 174 168 164 154 151 150 152 154 154 154 155 156 158 157 154 149 145 148 153 152 142 139 152 148 146 145 144 145 140 129 129 123 123
129 93 15 349 357 265 269 249 254 253 232 217 212 211 195 180 169 164 159 157 157 158 158 156 157 157 157 156 160 162 161 160 165 165 168 166 168 181 187 168 162 160 162 157 147 138 138 135 131
177 149 163 215 241 281 307 253 258 256 235 200 188 186 174 170 169 168 168 165 166 165 161 159 161 160 156 159 164 161 159 163 170 172 172 180 187 191 182 178 180 177 170 165 156 148 157 148 145
150 180 162 138 158 282 286 284 300 226 207 191 179 171 177 177 176 169 167 169 167 168 169 167 164 160 162 164 161 161 164 169 176 177 178 185 192 190 182 183 184 185 181 174 164 172 177 165 172
154 144 110 129 157 258 290 282 263 256 230 204 191 191 185 173 171 167 169 169 166 166 166 162 163 165 163 163 168 173 174 181 179 175 187 195 199 192 183 191 194 191 189 183 177 184 188 181 187
127 121 121 126 156 168 250 271 230 224 212 199 199 192 182 180 179 175 171 166 157 152 154 157 158 155 160 166 170 170 175 179 175 184 199 200 198 195 198 199 197 198 197 191 190 201 195 198 205
179 174 153 161 209 182 190 263 271 216 201 185 186 181 174 176 173 168 163 157 157 159 159 163 164 164 169 170 171 178 177 175 180 194 203 199 201 203 204 199 201 205 204 197 199 207 205 207 215
Height
1503 1503 1504 1506 1509 1515 1514 1505 1499 1497 1496 1495 1494 1496 1496 1498 1502 1506 1500 1500 1506 1511 1516 1520 1524 1526 1529 1530 1532 1534 1535 1537 1538 1539 1540 1542 1543 1544 1545 1546 1546 1547 1547 1548 1548 1549 1550 1550 1551
1503 1504 1506 1506 1512 1521 1514 1500 1498 1495 1494 1494 1494 1495 1496 1496 1496 1497 1497 1501 1507 1511 1516 1520 1524 1527 1529 1531 1533 1535 1536 1538 1539 1541 1542 1543 1544 1546 1547 1547 1548 1549 1549 1550 1550 1551 1551 1552 1553
1503 1504 1506 1507 1513 1517 1508 1496 1493 1493 1493 1493 1494 1495 1496 1495 1495 1495 1497 1502 1508 1512 1516 1520 1524 1527 1530 1532 1534 1536 1538 1539 1541 1542 1544 1545 1546 1547 1548 1549 1550 1550 1551 1551 1552 1552 1553 1554 1555
1504 1505 1506 1511 1511 1504 1497 1492 1490 1492 1494 1493 1494 1495 1495 1496 1495 1496 1498 1503 1508 1513 1517 1521 1525 1528 1530 1533 1535 1537 1539 1541 1542 1544 1545 1546 1548 1549 1550 1551 1552 1552 1553 1553 1554 1554 1555 1556 1557
1504 1505 1510 1515 1509 1497 1490 1488 1489 1491 1492 1492 1494 1494 1495 1496 1495 1497 1500 1504 1509 1514 1518 1522 1525 1528 1531 1534 1536 1538 1540 1542 1543 1545 1546 1548 1549 1550 1551 1552 1553 1554 1555 1555 1556 1557 1557 1558 1559
1505 1506 1516 1518 1506 1493 1488 1487 1488 1490 1491 1492 1493 1494 1494 1495 1496 1498 1501 1505 1510 1514 1518 1522 1526 1529 1532 1534 1536 1539 1541 1543 1545 1546 1548 1549 1550 1552 1553 1554 1555 1556 1556 1557 1558 1558 1559 1560 1561
1505 1509 1514 1511 1506 1495 1488 1486 1487 1489 1490 1490 1491 1493 1494 1495 1497 1499 1503 1507 1511 1515 1519 1522 1526 1529 1532 1535 1537 1539 1542 1544 1545 1547 1549 1550 1551 1553 1554 1555 1556 1557 1558 1558 1559 1560 1561 1562 1563
1503 1508 1510 1509 1503 1496 1488 1487 1487 1488 1489 1489 1491 1492 1492 1494 1496 1500 1503 1508 1512 1515 1519 1522 1526 1529 1532 1535 1537 1540 1542 1544 1546 1548 1550 1551 1552 1554 1555 1556 1557 1558 1559 1560 1560 1561 1562 1563 1564
1503 1510 1513 1505 1498 1491 1486 1487 1487 1487 1488 1489 1489 1490 1490 1493 1495 1499 1503 1507 1511 1514 1518 1522 1525 1529 1532 1535 1537 1540 1542 1545 1547 1549 1550 1552 1553 1554 1556 1557 1558 1559 1560 1561 1561 1562 1563 1564 1565
1502 1510 1503 1493 1489 1486 1485 1484 1485 1486 1487 1488 1488 1489 1489 1491 1494 1497 1500 1504 1508 1512 1516 1521 1525 1528 1531 1535 1537 1540 1542 1545 1547 1549 1550 1552 1554 1555 1556 1557 1558 1559 1560 1561 1562 1563 1564 1565 1566
1498 1500 1492 1487 1484 1484 1483 1483 1483 1484 1486 1484 1483 1485 1487 1490 1493 1496 1498 1502 1506 1511 1515 1520 1525 1528 1531 1534 1537 1539 1542 1544 1547 1549 1551 1552 1554 1555 1557 1558 1559 1560 1561 1561 1562 1563 1564 1565 1567
1496 1491 1488 1484 1481 1481 1481 1481 1482 1481 1480 1479 1480 1482 1485 1488 1491 1494 1497 1502 1506 1510 1514 1519 1524 1527 1531 1534 1536 1539 1542 1544 1547 1549 1551 1553 1554 1556 1557 1558 1559 1560 1561 1562 1563 1564 1565 1566 1567
1492 1488 1484 1481 1479 1478 1478 1478 1479 1479 1478 1478 1480 1482 1484 1487 1490 1495 1499 1503 1507 1509 1513 1519 1523 1527 1530 1534 1537 1539 1542 1545 1547 1549 1551 1553 1554 1556 1557 1558 1559 1560 1561 1562 1563 1564 1565 1566 1567
1489 1486 1482 1479 1477 1476 1477 1477 1478 1476 1476 1477 1478 1481 1483 1486 1490 1494 1498 1502 1505 1508 1512 1517 1522 1526 1530 1533 1536 1539 1542 1544 1547 1549 1551 1552 1554 1555 1556 1557 1558 1559 1561 1562 1563 1564 1565 1566 1567
1488 1486 1482 1478 1477 1476 1478 1480 1476 1474 1475 1476 1478 1481 1483 1487 1490 1493 1496 1500 1503 1507 1511 1516 1520 1524 1528 1532 1536 1539 1541 1544 1546 1549 1550 1552 1553 1554 1556 1557 1558 1559 1560 1561 1562 1563 1564 1565 1566
1488 1492 1493 1481 1477 1477 1482 1486 1474 1474 1475 1477 1479 1482 1483 1486 1489 1492 1495 1498 1502 1506 1510 1514 1519 1522 1527 1531 1535 1538 1541 1543 1546 1548 1550 1551 1552 1554 1555 1556 1557 1558 1559 1560 1561 1562 1563 1565 1566
1499 1504 1499 1487 1477 1477 1481 1483 1475 1474 1475 1477 1479 1482 1483 1485 1488 1490 1493 1496 1500 1504 1508 1512 1517 1521 1525 1530 1534 1537 1540 1543 1545 1547 1549 1550 1552 1553 1554 1555 1556 1557 1559 1560 1561 1562 1563 1564 1565
1505 1503 1498 1493 1481 1479 1481 1480 1476 1475 1476 1477 1479 1481 1482 1484 1486 1488 1491 1494 1498 1502 1506 1510 1514 1519 1524 1528 1532 1536 1539 1542 1544 1546 1548 1549 1551 1552 1553 1554 1555 1557 1558 1559 1561 1562 1563 1564 1565
1496 1499 1500 1489 1479 1481 1481 1480 1477 1476 1477 1478 1479 1480 1481 1482 1485 1487 1489 1492 1496 1499 1502 1506 1511 1516 1521 1526 1530 1534 1538 1541 1543 1546 1547 1549 1550 1552 1553 1554 1555 1556 1558 1559 1560 1561 1563 1564 1565
1494 1499 1496 1485 1478 1480 1482 1481 1477 1476 1476 1476 1477 1478 1479 1481 1483 1485 1487 1489 1491 1495 1499 1504 1509 1514 1519 1524 1529 1533 1537 1540 1542 1544 1546 1548 1549 1551 1552 1553 1554 1555 1557 1558 1559 1561 1562 1563 1564
1491 1494 1492 1489 1482 1481 1485 1485 1480 1477 1476 1476 1476 1476 1477 1479 1481 1483 1485 1487 1489 1493 1497 1501 1506 1512 1518 1523 1527 1531 1535 1538 1541 1544 1546 1547 1549 1550 1552 1553 1554 1555 1556 1558 1559 1560 1561 1562 1564
1493 1482 1483 1484 1491 1497 1494 1502 1484 1479 1478 1476 1476 1475 1476 1478 1479 1481 1483 1485 1488 1491 1496 1501 1506 1511 1517 1521 1525 1529 1533 1536 1539 1543 1545 1546 1548 1549 1551 1552 1553 1554 1556 1557 1558 1559 1561 1562 1563
1482 1479 1482 1486 1492 1500 1498 1502 1493 1481 1480 1476 1474 1474 1475 1476 1478 1480 1482 1484 1488 1491 1495 1500 1505 1509 1515 1520 1524 1528 1532 1536 1539 1542 1544 1546 1547 1549 1550 1552 1553 1554 1555 1556 1558 1559 1560 1561 1563
1475 1481 1487 1495 1502 1510 1500 1503 1497 1484 1476 1473 1472 1472 1473 1475 1477 1479 1481 1484 1487 1491 1494 1499 1504 1509 1513 1518 1523 1527 1531 1535 1538 1541 1543 1545 1547 1548 1550 1551 1552 1553 1555 1556 1557 1558 1559 1561 1562
1477 1494 1511 1511 1518 1513 1501 1502 1495 1473 1470 1469 1470 1471 1472 1473 1475 1478 1480 1483 1486 1490 1493 1498 1502 1507 1512 1517 1521 1526 1530 1534 1537 1540 1542 1544 1546 1548 1549 1551 1552 1553 1554 1555 1556 1557 1558 1559 1561
1479 1488 1509 1517 1519 1511 1501 1501 1482 1468 1467 1467 1467 1469 1471 1472 1474 1477 1479 1482 1486 1489 1493 1497 1501 1506 1510 1515 1520 1525 1529 1533 1536 1539 1542 1544 1546 1547 1549 1550 1551 1552 1553 1554 1555 1556 1557 1558 1559
1478 1485 1485 1503 1508 1513 1504 1493 1476 1466 1466 1466 1467 1468 1469 1471 1473 1476 1478 1482 1485 1489 1492 1496 1501 1505 1510 1515 1519 1524 1528 1532 1535 1538 1541 1543 1545 1547 1548 1549 1550 1551 1552 1553 1554 1555 1556 1557 1558
1467 1477 1493 1503 1513 1515 1504 1496 1487 1469 1466 1466 1466 1467 1468 1470 1472 1475 1477 1481 1484 1488 1492 1496 1500 1505 1509 1514 1518 1523 1527 1530 1534 1537 1539 1542 1544 1545 1547 1548 1549 1550 1551 1552 1553 1554 1555 1556 1556
1472 1478 1486 1499 1501 1511 1512 1497 1466 1463 1461 1463 1464 1465 1467 1469 1471 1474 1478 1481 1484 1488 1492 1496 1500 1504 1508 1513 1517 1521 1525 1529 1532 1535 1537 1540 1542 1544 1545 1547 1548 1549 1550 1551 1552 1552 1553 1554 1555
1463 1471 1482 1492 1497 1502 1504 1492 1456 1457 1457 1459 1461 1463 1465 1468 1471 1474 1477 1481 1484 1488 1492 1496 1500 1504 1508 1512 1516 1520 1523 1527 1530 1533 1535 1538 1540 1542 1543 1545 1546 1547 1548 1549 1549 1550 1551 1552 1553